Location: Choisy
(48.7685°N, 2.4187°E)
Time: 20:09:58
(UTC+00:00)

ATLAS 3B R/B - Pass Details

Date: 01 June 2022
Orbit: 976 x 1218 km, 63.8° (Epoch: 20 June)

Event Time Altitude Azimuth Distance (km) Brightness Sun altitude
Rises 21:45:13 0° 314° (NW) 3,984 7.3 -14.0°
Reaches altitude 10° 21:48:10 10° 305° (NW) 3,055 6.1 -14.2°
Maximum altitude 21:54:26 32° 247° (WSW) 1,929 4.1 -14.7°
Enters shadow 22:00:18 12° 191° (S) 2,977 4.6 -15.1°
